Location: Newark
(49.8969°N, 3.3422°E)
Time: 21:08:12
(UTC+00:00)

N. Korean satellite - Visible Passes

Search period start: 12 December 2019 00:00
Search period end: 22 December 2019 00:00
Orbit: 455 x 506 km, 97.2° (Epoch: 12 December)

Date Brightness Start Highest point End Pass type
(mag) Time Alt. Az. Time Alt. Az. Time Alt. Az.
12 Dec 6.6 05:43:44 10° NNE 05:47:18 76° ESE 05:50:46 10° S visible
12 Dec 6.7 16:23:02 10° SSE 16:26:40 56° ENE 16:30:16 10° N visible
12 Dec 9.9 17:58:26 10° WSW 18:00:23 14° W 18:02:19 10° WNW visible
13 Dec 8.1 05:18:28 10° NNE 05:21:48 37° E 05:25:02 10° SSE visible
13 Dec 7.9 06:52:25 10° NNW 06:54:57 19° WNW 06:57:27 10° WSW visible
13 Dec 9.1 17:31:39 10° SSW 17:34:44 25° W 17:37:48 10° NW visible
14 Dec 9.3 04:53:33 10° NE 04:56:11 19° E 04:58:46 10° SE visible
14 Dec 7.1 06:26:29 10° N 06:29:42 33° WNW 06:32:50 10° SW visible
14 Dec 7.8 17:05:37 10° S 17:09:10 46° W 17:12:43 10° NNW visible
15 Dec 10.1 04:29:50 10° ENE 04:30:29 10° E 04:31:08 10° E visible
15 Dec 6.4 06:00:49 10° N 06:04:20 66° WNW 06:07:46 10° SSW visible
15 Dec 6.6 16:40:01 10° SSE 16:43:42 88° ENE 16:47:22 10° NNW visible
16 Dec 7.0 05:35:24 10° NNE 05:38:53 60° E 05:42:18 10° S visible
16 Dec 9.8 17:49:32 10° SW 17:51:56 16° W 17:54:19 10° NW visible
17 Dec 8.5 05:10:13 10° NNE 05:13:21 29° E 05:16:25 10° SSE visible
17 Dec 7.7 06:43:51 10° NNW 06:46:37 22° WNW 06:49:21 10° WSW visible
17 Dec 8.8 17:23:03 10° SSW 17:26:18 29° W 17:29:34 10° NNW visible
18 Dec 9.6 04:45:29 10° NE 04:47:42 16° E 04:49:54 10° SE visible
18 Dec 6.8 06:18:00 10° N 06:21:19 40° WNW 06:24:34 10° SW visible
18 Dec 7.3 16:57:10 10° S 17:00:47 57° W 17:04:22 10° NNW visible
19 Dec 6.3 05:52:26 10° NNE 05:55:56 83° WNW 05:59:22 10° SSW visible
19 Dec 6.5 16:31:41 10° SSE 16:35:19 71° ENE 16:38:57 10° N visible
19 Dec 10.2 18:08:17 10° WSW 18:09:09 11° W 18:10:02 10° WNW visible
20 Dec 7.5 05:27:04 10° NNE 05:30:26 47° E 05:33:46 10° S visible
20 Dec 8.1 07:01:25 10° NNW 07:03:30 15° WNW 07:05:33 10° W visible
20 Dec 9.5 17:40:45 10° SW 17:43:28 20° W 17:46:10 10° NW visible
21 Dec 8.9 05:01:59 10° NE 05:04:52 24° E 05:07:42 10° SSE visible
21 Dec 7.4 06:35:17 10° N 06:38:15 26° WNW 06:41:11 10° SW visible
21 Dec 8.3 17:14:29 10° SSW 17:17:52 36° W 17:21:14 10° NNW visible
